OpenBCM V1.13 (Linux)

Packet Radio Mailbox

DB0FHN

[JN59NK Nuernberg]

 Login: GUEST





  
I0OJJ  > AMSAT    27.08.26 22:47l 340 Lines 15962 Bytes #999 (0) @ WW
BID : 3PC_IR0EQ
Read: DJ6UX GUEST
Subj: 2Line Orbital Elements
Path: DB0FHN<DB0RKB<DK0WUE<PI8ZTM<PD1HBL<KB1TAE<W1BKW<N2MH<VE2PKT<VA2RIZ<
      VE3KPG<GB7CIP<I0OJJ<IR0EQ
Sent: 260822/0026z @:IR0EQ.ITA.EU [Rome] $:3PC_IR0EQ

>From i0ojj%ir0eq.ita.eu@i0ojj.ampr.org Sat Aug 22 02:26:59 2026
Received: from i0ojj.ampr.org by i0ojj.ampr.org (JNOS2.0q.1) with SMTP
	id AA17064382 ; Sat, 22 Aug 2026 02:26:59 +0200
Message-Id: <3PC_IR0EQ@i0ojj.bbs>
>From: i0ojj@ir0eq.ita.eu
X-JNOS-User-Port: Telnet   (i0ojj @ 44.27.18.9)  ->   Sending message

>From i0ojj@rgate.ampr.org Sat Aug 22 02:26:01 2026
Received: from rgate.ampr.org by rgate.ampr.org (JNOS2.0q.1) with SMTP
	id AA4800 ; Sat, 22 Aug 2026 02:26:01 +0200
Received: by rgate.ampr.org with SMTP
	id AA4797 ; Sat, 22 Aug 2026 02:25:34 +0200
Message-Id: <4798@rgate.ampr.org>
>From: i0ojj@rgate.ampr.org

SB KEPS @ AMSAT  $ORB26234.1
2Line Orbital Elements 26234.AMSAT

QST de W1STR

AMSAT Orbital Elements for Amateur Satellites in TLE Format
>From Orbital Analysis Office
New England Sci-Tech STEM Education Center
Natick MA August 22, 2026
To all radio amateurs


These element sets describe the orbits of various satellites 
in use by the amateur radio community. For details see:
www.amsat.org/keplerian-elements-formats/

A daily update of element sets is available at:
www.amsat.org/tle/daily-bulletin.txt
or without bulletin text:
www.amsat.org/tle/dailytle.txt


AO-07
1 07530U 74089B   26233.01765400 -.00000044  00000-0  14599-4 0  9993
2 07530 101.9919 246.9420 0012298   9.4911  47.9894 12.53699147368645
UO-11
1 14781U 84021B   26232.92191722  .00001408  00000-0  14828-3 0  9993
2 14781  97.8123 197.8016 0007031 341.8951  18.2015 14.90932653266774
LO-19
1 20442U 90005G   26233.48504590  .00000065  00000-0  39958-4 0  9996
2 20442  98.8843 257.0853 0011845  20.0738 340.0909 14.34138832911758
AO-27
1 22825U 93061C   26233.16852468  .00000056  00000-0  38378-4 0  9998
2 22825  98.6830 300.5422 0007231 269.4520  90.5834 14.30956466716290
FO-29
1 24278U 96046B   26233.14977242 -.00000015  00000-0  24204-4 0  9993
2 24278  98.5192  73.1170 0348834 287.9212  68.4188 13.53276921481950
GO-32
1 25397U 98043D   26233.46035557  .00000039  00000-0  37023-4 0  9992
2 25397  99.0125 227.8814 0002073  56.1948 303.9427 14.24439030460627
ISS
1 25544U 98067A   26233.53315667  .00008864  00000-0  16558-3 0  9996
2 25544  51.6331 336.6713 0007673  69.9303 290.2511 15.49551867581884
NO-44
1 26931U 01043C   26232.97535848  .00000064  00000-0  54911-4 0  9997
2 26931  67.0496  76.6978 0005638 269.8366  90.2090 14.31976333299729
SO-50
1 27607U 02058C   26233.15735848  .00000849  00000-0  11745-3 0  9996
2 27607  64.5517 287.9506 0073256 250.5523 108.7658 14.83168441274091
CO-55
1 27844U 03031E   26233.01571892  .00000228  00000-0  11764-3 0  9995
2 27844  98.6763 240.7665 0009600   5.0740 355.0535 14.24369479200903
RS-22
1 27939U 03042A   26233.61050005  .00000407  00000-0  70757-4 0  9993
2 27939  98.3492  59.8314 0012494  63.7765  27.0194 14.73565686225183
CO-65
1 32785U 08021C   26233.59930160  .00003682  00000-0  23075-3 0  9994
2 32785  97.8340 216.4267 0009337 154.9431 205.2252 15.09975465995063
CO-66
1 32791U 08021J   26233.44013508  .00018729  00000-0  55708-3 0  9999
2 32791  97.7556 234.5692 0004836  86.2405 273.9390 15.34779958997297
RS-30
1 32953U 08025A   26233.60764718 -.00000041  00000-0 -36661-3 0  9994
2 32953  82.5063 314.7537 0020078 165.9078 194.2567 12.43181959827825
SRMSAT
1 37841U 11058D   26233.61259703  .00000364  00000-0  53838-4 0  9991
2 37841  19.9732  23.4561 0011638 203.7338 238.8179 14.11587560767075
ZACUBE-1
1 39417U 13066B   26233.32207722  .00005447  00000-0  41719-3 0  9996
2 39417  97.8029 195.9687 0042225  34.8961 325.5018 15.01576364690504
Delfi-N3xt
1 39428U 13066N   26233.21644441  .00007073  00000-0  60538-3 0  9996
2 39428  97.8293 153.4843 0073486 351.9030   8.0999 14.95805896684348
GOMX-1
1 39430U 13066Q   26233.61947970  .00001598  00000-0  24536-3 0  9990
2 39430  97.6455  69.9577 0127013 226.8405 132.2130 14.69620088679526
LO-74
1 39440U 13066AA  26233.29835834  .00002329  00000-0  21648-3 0  9994
2 39440  97.8945 182.5861 0057142 169.7449 190.4951 14.94143056686718
AO-73
1 39444U 13066AE  26233.59920441  .00007510  00000-0  45598-3 0  9997
2 39444  97.8339 206.4697 0035157 344.2552  15.7580 15.10293194689537
DTUSAT-2
1 40030U 14033W   26232.55171976  .00006548  00000-0  34702-3 0  9996
2 40030  98.0907 234.4139 0008482  27.9672 332.2013 15.15741580662435
LILACSAT-2
1 40908U 15049K   26233.56462205  .00016770  00000-0  26529-3 0  9994
2 40908  97.4600 272.9677 0006965  31.1840 328.9825 15.53502649605897
Lapan A3
1 41603U 16040E   26233.64829977  .00002939  00000-0  93036-4 0  9991
2 41603  97.1544 227.6766 0011507 133.2395 226.9811 15.33466839564846
CAS-2T
1 41847U 16066G   26233.61662888  .00000415  00000-0  68418-4 0  9995
2 41847  98.3780 308.6039 0340132 291.1052  65.4095 14.44810943514246
TechnoSat
1 42829U 17042E   26233.40100935  .00002552  00000-0  18224-3 0  9991
2 42829  97.4354  28.6230 0016418 228.1604 131.8222 15.05270937496516
AO-91
1 43017U 17073E   26233.61118021  .00007576  00000-0  32246-3 0  9994
2 43017  97.4611  99.4918 0149985 102.4085 259.3978 15.13550152475288
S-Net D
1 43186U 18014G   26233.17227734  .00004334  00000-0  22141-3 0  9992
2 43186  97.5277 137.5559 0009001 142.4925 217.6937 15.17188800468612
S-Net B
1 43187U 18014H   26233.18503970  .00004186  00000-0  21408-3 0  9993
2 43187  97.5286 137.5569 0009780 138.9426 221.2545 15.17157685468617
S-Net A
1 43188U 18014J   26233.17080213  .00004359  00000-0  22259-3 0  9990
2 43188  97.5294 137.7642 0009637 139.6280 220.5671 15.17196910468614
S-Net C
1 43189U 18014K   26233.18930404  .00004171  00000-0  21332-3 0  9991
2 43189  97.5312 137.8673 0011161 134.1260 226.0893 15.17147628467162
Ten-Koh
1 43677U 18084G   26233.09819162  .00002475  00000-0  18802-3 0  9990
2 43677  98.0744  68.2027 0008638 260.9229  99.1018 15.03158722425914
PO-101
1 43678U 18084H   26233.58525404  .00001384  00000-0  11450-3 0  9998
2 43678  98.1210  72.6710 0010489 316.1781  43.8608 15.00664562426021
QO-100
1 43700U 18090A   26233.27345895  .00000142  00000-0  00000+0 0  9997
2 43700   0.0144 160.4148 0002242  12.6777 280.7432  1.00269845 28325
MinXSS-2
1 43758U 18099A   26233.20284919  .00044951  00000-0  76233-3 0  9992
2 43758  97.4480 311.5900 0006419  37.3866 322.7831 15.51359711424197
AO-95
1 43770U 18099N   26233.59238419  .00010696  00000-0  39409-3 0  9995
2 43770  97.4332 293.6360 0010097 113.9250 246.3048 15.27956610423208
SNUSat 2
1 43782U 18099AA  26233.14532131  .00007856  00000-0  33918-3 0  9990
2 43782  97.4010 285.5517 0011713  72.7700 287.4817 15.22718663422912
SnugLite
1 43784U 18099AC  26233.11395207  .00010848  00000-0  39443-3 0  9994
2 43784  97.3817 286.7937 0004364  75.5372 284.6352 15.28426024423239
ITASat 1
1 43786U 18099AE  26233.61458531  .00006274  00000-0  29568-3 0  9996
2 43786  97.3981 283.8336 0013949 120.7357 239.5254 15.19767806422841
EAGLET 1
1 43790U 18099AJ  26233.58648653  .00003343  00000-0  19075-3 0  9999
2 43790  97.4185 281.5223 0012619 116.3846 243.8683 15.13362147422229
ESEO
1 43792U 18099AL  26233.36654654  .00001506  00000-0  11177-3 0  9999
2 43792  97.3944 267.9566 0013728 108.8570 251.4146 15.04416966421602
JO-97
1 43803U 18099AX  26233.42986227  .00017645  00000-0  51161-3 0  9991
2 43803  97.4073 296.5621 0006379  52.8897 307.2929 15.35582008423632
Suomi 100
1 43804U 18099AY  26233.12169219  .00012239  00000-0  42589-3 0  9991
2 43804  97.4134 293.3171 0010799  58.3150 301.9142 15.29788231423345
ISAT
1 43879U 18111D   26233.58414699  .00208351  00000-0  10364-2 0  9990
2 43879  97.5815 174.5504 0008313 100.2178 260.0027 15.81320733421443
UWE-4
1 43880U 18111E   26233.62850344  .00035491  00000-0  63149-3 0  9991
2 43880  97.5814 165.2248 0010062  88.3562 271.8842 15.50017816420909
Sparrow
1 43881U 18111F   26228.98401838  .16116594  28263-5  19760-3 0  9992
2 43881  97.5857 177.1140 0010462 202.8700 157.2139 16.49385238421037
Prox-1
1 44339U 19036A   26233.56187907  .00011490  00000-0  10783-2 0  9997
2 44339  23.9958  37.0590 0006162  71.3805 288.7364 14.91967795383240
Taurus 1
1 44530U 19059C   26233.61672234  .00005705  00000-0  90236-3 0  9997
2 44530  98.6481  42.5591 0009664 105.9369 254.2902 14.72686014368277
TO-108
1 44881U 19093C   26233.60517686  .00000501  00000-0  62457-4 0  9996
2 44881  97.7482 304.2291 0012312 228.1341 131.8825 14.86602918361132
RS-44
1 44909U 19096E   26233.59782788  .00000004  00000-0 -26906-4 0  9993
2 44909  82.5217 296.2479 0217243 351.7451   8.0096 12.79748868310712
SALSAT
1 46495U 20068K   26233.27555995  .00007418  00000-0  25305-3 0  9995
2 46495  97.8884 240.3530 0011293  77.4401 282.8101 15.30612635325318
CSS (TIANHE-1)
1 48274U 21035A   26233.50601792  .00010952  00000-0  14010-3 0  9998
2 48274  41.4689 285.4972 0001541 256.2748 103.7919 15.59124724303366
TeikyoSat 4
1 49396U 21102B   26233.34437841  .00001721  00000-0  11039-3 0  9995
2 49396  97.3651 260.2939 0013618  71.6256 288.6453 15.09704698262556
Z-Sat
1 49399U 21102E   26233.56773462  .00004779  00000-0  23268-3 0  9997
2 49399  97.3298 266.9115 0017188  24.6121 335.5931 15.18705479263361
KOSEN 1
1 49402U 21102H   26233.59476150  .00006687  00000-0  24954-3 0  9992
2 49402  97.3146 274.5014 0012556 343.8969  16.1869 15.27657423264000
HO-113
1 50466U 21131B   26233.58507412  .00000346  00000-0  12039-3 0  9998
2 50466  98.4973 325.6209 0002873 259.7121 100.3744 14.41408104244531
SNUGLITE 2
1 52899U 22065F   26233.35259688  .00000833  00000-0  16660-3 0  9996
2 52899  98.2290  18.1037 0007670 169.7661 190.3698 14.64448543220532
UmKA 1 (RS40S)
1 57172U 23091G   26233.61214154  .00004762  00000-0  21478-3 0  9991
2 57172  97.4997 292.0676 0010927 247.5979 112.4100 15.21451637173952
